Погода в Урицке

Погода в Урицке : погода сейчас, прогноз погоды и архив. Всё, что Вы хотите узнать о погоде в Урицке!

Поиск расширенной информации на нашем сайте:

Другие новости

Новости СМИ2

Главная страница сайта

Новости сайта

03.07.2017

Напоминаем, что на нашем специализированном сайте Метеоцентр.Азия вы можете получить высокодетализированные автоматические прогнозы погоды по пунктам России, СНГ и мира в авиационном формате (включающие направление и скорость ветра, видимость, явления погоды, количество и форму облачности, нижнюю и верхнюю границу облачности).

Рекомендуем: Ролмастер изготовление Рольставней forec.ru.

Погода в Урицке - сегодня

Время (UTC), дата Ветер
(°,м/с) 
Видим.   Явления Облачность Т
(°С)
Тd
(°С)
f(%) Тe
(°С)
Pmin
(гПа)
dP
(гПа)
Po
(мм)
O2
(г/м3)
Тmin Tmax R s Состояние
почвы
12 19.04.18 200 (Ю) 10  20000 м    5/4 600 м 
[Cu med, cong]
+9.8 +3.6 65 +7  1019.4  -2.6  743  288           
15 19.04.18 180 (Ю) 20000 м    5/5 600 м 
[Sc]
+7.3 +1.9 69 +5  1015.1  -1.2  742  291    +10       
18 19.04.18 190 (Ю) н/о    10/10 600 м 
[Sc]
+4.9 +0.2 72 +2  1014.2  -1.1  741  293    +10       
21 19.04.18 180 (Ю) н/о    10/10 600 м 
[Sc]
+5.6 +0.7 71 +3  1012.2  -1.9  739  292           
09 20.04.18 200 (Ю) 10  20000 м    8/8 600 м 
[Cu med, cong]
+14.9 +8.6 66 +14  1006.5  -1.8  736  280           
15 20.04.18 200 (Ю) 20000 м    10/10 600 м 
[Sc]
+13.2 +6.2 62 +12  1005.2  -0.7  735  281    +15.3       
18 20.04.18 190 (Ю) н/о    10/10 600 м 
[Sc]
+11.6 +5.6 67 +10  1004.4  -0.9  734  283    +15.3       
21 20.04.18 200 (Ю) н/о    10/10 600 м 
[Sc]
+9.3 +3.8 68 +7  1026.7  -1.3  733  285           
09 21.04.18 190 (Ю) 20000 м  в посл. час ливневой дождь  10/10 600 м 
[Sc]
+11.3 +7.1 75 +10  1000.2  -1  731  282           
21 21.04.18 330 (СЗ) н/о    10/10 600 м 
[Sc]
-1.2 -4.8 76 -2  1006.3  2.1  735  298           
00 22.04.18 350 (С) 20000 м    10/10 600 м 
[Sc]
-2.2 -5.8 76 -5  1007.8  1.4  736  299           
09 22.04.18 070 (В) 20000 м    5/5 600 м 
[Cu med, cong]
+4.4 -1.4 66 +2  1008.6  -0.7  737  292           
12 22.04.18 100 (В) 20000 м    4/4 600 м 
[Cu med, cong]
+8.7 +1.9 62 +8  1007.7  -0.4  736  287           
15 22.04.18 110 (В) 20000 м    3/3 600 м 
[Cu med, cong]
+6.9 +0.9 66 +6  1007.7  -0.2  736  289    +9       
18 22.04.18 100 (В) н/о    3/3 600 м 
[Sc]
+3.7 -1.6 68 +2  1008.3  0.2  736  293    +9       
21 22.04.18 140 (ЮВ) н/о    4/4 600 м 
[Sc]
+1.7 -3 71 1007.9  -0.6  736  295           
00 23.04.18 190 (Ю) 20000 м    ясно 
+0.4 -3.6 74 1008  736  296           
06 23.04.18 200 (Ю) 20000 м    4/3 600 м верхняя 
[Cu med, cong|Ci sp]
+13.2 +6.5 64 +12  1007.2  0.1  736  282  +0.2         
09 23.04.18 190 (Ю) 10  20000 м    5/5 600 м 
[Cu med, cong]
+15.8 +8.1 60 +15  1005.9  -1  736  279           
12 23.04.18 190 (Ю) 11  20000 м    6/6 600 м 
[Cu med, cong]
+17.7 +9 57 +17  1004.7  -1  735  276           
15 23.04.18 180 (Ю) 20000 м    9/9 600 м 
[Sc]
+13.8 +6.1 60 +13  1004.8  -0.3  735  281    +18       
18 23.04.18 190 (Ю) н/о    10/10 600 м 
[Sc]
+11.4 +4.3 62 +10  1005  -0.1  734  283    +18       
21 23.04.18 180 (Ю) н/о    10/10 600 м 
[Sc]
+10.3 +4 65 +8  1003.5  -1.6  733  284           
00 24.04.18 190 (Ю) 20000 м    10/10 600 м 
[Sc]
+7.7 +2.1 68 +5  1004.2  -0.6  734  287           
06 24.04.18 230 (ЮЗ) 10  20000 м    3/3 600 м 
[Cu med, cong]
+9.4 +3 64 +7  1005.7  0.5  735  286  +5.4         
Время (UTC), дата Ветер
(°,м/с) 
Видим.   Явления Облачность Т
(°С)
Тd
(°С)
f(%) Тe
(°С)
Pmin
(гПа)
dP
(гПа)
Po
(мм)
O2
(г/м3)
Тmin Tmax R s Состояние
почвы

Для получения пояснительной информации подведите курсор к названию столбца.

ПОГОДА в Урицке - архив

Всё, что Вы хотите узнать о погоде в Урицке - удобно и подробно!

Выберите нужную дату (начиная с 1 января 2015* года) и нажмите кнопку "Найти".
Будут отображены архивные сводки погоды по пункту Урицк, начиная с указанной даты.


Отображать данные в формате CSV (для использования в таблицах Excel)


Внимание! Наш архив погоды предназначен исключительно для личного некоммерческого использования в познавательных целях. Если Вам необходимы официальные справки о состоянии погоды (для производственных, юридических, коммерческих и т.п. целей), обращайтесь в органы Росгидромета.

*Примечание: данная дата относится к архиву по метеостанциям СССР (Россия, СНГ, Балтия).
Архив по метеостанциям Зарубежной Европы и Азии (кроме Китая) хранится 10 дней, по другим регионам земного шара (Китай, Африка, Америка, Австралия, Океания) - 1 день.

Урицк - район местоположения метеостанции


Название, широта, долгота, высота метеостанции:
Урицк 53.3°ш. 65.6°д. 216 м над ур. моря [Казахстан]

Дополнительная информация

В oтличие oт бoльшинства пoгoдных сайтoв мы публикуем пoдрoбную метеoинфoрмацию в детальнoм прoфессиoнальнoм фoрмате.

Характеристики температуры и влажнoсти вoздуха измеряются на высoте 2 м в тени вдали oт зданий и деревьев.
Скoрoсть ветра измеряется на высoте 10 м (на урoвне рoста челoвека скoрoсть ветра ниже в 1.5-2 раза). Если метеoстанция нахoдится в гoрoде или в лесу, тo скoрoсть ветра занижена на 2-4 м/с пo сравнению с oткрытым местoм. Скoрoсть ветра над акватoриями крупных рек и oзёр, а также на вершинах хoлмoв на 2-5 м/с выше, чем в oбычных услoвиях.
Атмoсфернoе давление в разных тoчках местнoсти мoжет значительнo oтличаться oт давления на метеoстанции, в зависимoсти oт услoвий рельефа (при пoдъёме на 10 м давление пoнижается примернo на 1 мм рт.ст.).